#timestamp,LO_Frequency,Hit 
1501300815.4,286047010.6,N
1501300835.3,286047006.7,N
1501300855.1,286047010.7,N
1501300856.0,286047010.7,N
1501300875.8,286047011.5,N
1501300895.6,286047012.7,N
1501300915.5,286047009.9,N
1501300935.3,286047009.4,N
1501300955.1,286047009.9,N
1501300975.9,286047010.2,N
1501300995.7,286047011.3,N
1501301015.5,286047011.1,N
1501301035.4,286047009.2,N
1501301055.2,286047009.4,N
1501301075.0,286047009.4,N
1501301075.9,286047009.4,N
1501301095.8,286047007.7,N
1501301115.6,286047010.4,N
1501301135.4,286047008.3,N
1501301155.3,286047010.1,N
1501301175.1,286047011.4,N
1501301176.0,286047011.4,N
1501301195.8,286047013.8,N
1501301215.6,286047010.2,N
1501301235.5,286047012.0,N
1501301255.3,286047008.2,N
1501301275.1,286047010.3,N
1501301295.9,286047011.9,N
1501301315.7,286047012.7,N
1501301335.5,286047013.7,N
1501301355.4,286047014.6,N
1501301375.2,286047017.5,N
1501301395.0,286047017.8,N
1501301395.9,286047017.8,N
1501301415.7,286047012.9,N
1501301435.6,286047011.7,N
1501301455.4,286047014.4,N
1501301475.2,286047014.5,N
1501301495.1,286047014.3,N
1501301496.0,286047014.3,N
1501301515.8,286047014.8,N
1501301535.6,286047017.0,N
1501301555.5,286047015.6,N
1501301575.3,286047018.8,N
1501301595.1,286047012.7,N
1501301615.9,286047008.9,N
1501301635.7,286047008.0,N
1501301655.5,286047011.7,N
1501301675.4,286047012.1,N
1501301695.2,286047009.6,N
1501301715.0,286047012.5,N
1501301715.9,286047012.5,N
1501301735.7,286047011.7,N
1501301755.6,286047012.9,N
1501301775.4,286047012.8,N
1501301795.2,286047011.2,N
1501301815.1,286047010.9,N
1501301816.0,286047010.9,N
1501301835.8,286047012.3,N
1501301855.6,286047014.4,N
1501301875.5,286047010.2,N
1501301895.3,286047008.0,N
1501301915.1,286047008.5,N
1501301935.9,286047013.4,N
1501301955.7,286047014.0,N
1501301975.5,286047013.3,N
1501301995.4,286047014.1,N
1501302015.2,286047014.6,N
1501302035.0,286047012.8,N
1501302035.9,286047012.8,N
1501302055.7,286047011.4,N
1501302075.6,286047015.8,N
1501302095.4,286047017.3,N
1501302115.2,286047014.2,N
1501302135.1,286047015.2,N
1501302136.0,286047015.2,N
1501302155.8,286047013.2,N
1501302175.6,286047014.9,N
1501302195.5,286047016.0,N
1501302215.3,286047020.4,N
1501302235.1,286047016.2,N
1501302255.9,286047018.6,N
1501302275.7,286047017.0,N
1501302295.5,286047012.6,N
1501302315.3,286047015.7,N
1501302335.2,286047016.6,N
1501302355.0,286047014.5,N
1501302355.9,286047014.5,N
1501302375.7,286047020.2,N
1501302395.6,286047015.8,N
1501302415.4,286047013.5,N
1501302435.2,286047014.0,N
1501302455.1,286047017.9,N
1501302456.0,286047017.9,N
1501302475.8,286047022.0,N
1501302495.6,286047022.0,N
1501302515.5,286047023.4,N
1501302535.3,286047019.4,N
1501302555.1,286047019.9,N
1501302575.8,286047016.4,N
1501302595.7,286047017.1,N
1501302615.5,286047016.5,N
1501302635.3,286047017.8,N
1501302655.2,286047014.1,N
1501302675.9,286047015.4,N
1501302695.7,286047017.1,N
1501302715.6,286047016.4,N
1501302735.4,286047014.9,N
1501302755.2,286047014.1,N
1501302775.1,286047017.2,N
1501302776.0,286047017.2,N
1501302795.8,286047016.8,N
1501302815.6,286047016.2,N
1501302835.4,286047015.9,N
1501302855.3,286047016.1,N
1501302875.1,286047018.2,N
1501302895.8,286047012.8,N
1501302915.7,286047012.5,N
1501302935.5,286047013.1,N
1501302955.3,286047016.8,N
1501302975.2,286047020.1,N
1501302995.9,286047018.0,N
1501303015.7,286047014.9,N
1501303035.6,286047016.7,N
1501303055.4,286047018.7,N
1501303075.2,286047013.3,N
1501303095.1,286047013.0,N
1501303096.0,286047013.0,N
1501303115.8,286047011.6,N
1501303135.6,286047012.6,N
1501303155.4,286047014.0,N
1501303175.3,286047011.2,N
1501303195.1,286047013.4,N
1501303215.8,286047013.8,N
1501303235.7,286047011.1,N
1501303255.5,286047009.3,N
1501303275.3,286047008.0,N
1501303295.2,286047010.5,N
1501303315.9,286047010.3,N
1501303335.7,286047012.4,N
1501303355.6,286047010.8,N
1501303375.4,286047008.3,N
1501303395.2,286047009.1,N
1501303415.0,286047008.4,N
1501303415.9,286047008.4,N
1501303435.8,286047006.9,N
1501303455.6,286047006.3,N
1501303475.4,286047005.8,N
1501303495.3,286047002.9,N
1501303515.1,286047003.0,N
1501303535.8,286047003.2,N
1501303555.7,286047003.0,N
1501303575.5,286047007.2,N
1501303595.3,286047006.7,N
1501303615.2,286047008.9,N
1501303635.9,286047010.4,N
1501303655.7,286047006.1,N
1501303675.5,286047003.5,N
1501303695.4,286047004.1,N
1501303715.2,286047005.6,N
1501303735.0,286047003.8,N
1501303735.9,286047003.8,N
1501303755.8,286047002.4,N
1501303775.6,286046998.2,N
1501303795.4,286046999.5,N
1501303815.3,286046998.8,N
1501303835.1,286046999.5,N
1501303836.0,286046999.5,N
1501303855.8,286046998.7,N
1501303875.7,286047000.9,N
1501303895.5,286047002.2,N
1501303915.3,286047002.4,N
1501303935.2,286047001.7,N
1501303955.9,286047001.6,N
1501303975.7,286047003.5,N
1501303995.5,286047003.0,N
1501304015.4,286047001.3,N
1501304035.2,286047002.0,N
1501304055.0,286047001.9,N
1501304055.9,286047001.9,N
1501304075.8,286047002.4,N
1501304095.6,286047000.5,N
1501304115.4,286047001.1,N
1501304135.3,286047001.0,N
1501304155.1,286047002.7,N
1501304156.0,286047002.7,N
1501304175.8,286047001.3,N
1501304195.7,286047004.0,N
1501304215.5,286047002.5,N
1501304235.3,286047000.1,N
1501304255.1,286047001.7,N
1501304275.9,286047002.4,N
1501304295.7,286047001.4,N
1501304315.5,286047000.4,N
1501304335.4,286047001.0,N
1501304355.2,286047002.7,N
1501304375.0,286046998.4,N
1501304375.9,286046998.4,N
1501304395.8,286046997.2,N
